EW0322 Weather Reports


Display with metric or nautical units.
time (UTC)temp
F
wind
direction
speed
MPH
gust
MPH
rain 1hr
in
rain 24hr
in
rain mn
in
humidity
%
barometer
mb
20260510203046 89 71 2.0 8.0 0.00 0.00 0.00 15 1004.8
20260510201548 89 71 4.0 12.0 0.00 0.00 0.00 16 1005.0
20260510200044 88 360 2.0 6.0 0.00 0.00 0.00 16 1005.1
20260510194544 88 360 2.0 6.0 0.00 0.00 0.00 17 1005.3
20260510193044 86 9 1.0 9.0 0.00 0.00 0.00 18 1005.4
20260510191541 87 360 3.0 10.0 0.00 0.00 0.00 18 1005.5
20260510190040 87 351 4.0 11.0 0.00 0.00 0.00 16 1005.6
20260510184544 87 355 0.0 10.0 0.00 0.00 0.00 16 1005.7
20260510183039 88 337 0.0 9.0 0.00 0.00 0.00 13 1005.7
20260510181600 88 334 0.0 8.0 0.00 0.00 0.00 13 1005.8
20260510180059 87 336 0.0 9.0 0.00 0.00 0.00 13 1006.0
20260510174536 87 345 2.0 9.0 0.00 0.00 0.00 13 1006.0
20260510173035 87 342 0.0 10.0 0.00 0.00 0.00 13 1006.0
20260510171540 88 355 1.0 8.0 0.00 0.00 0.00 13 1006.1
20260510170030 87 26 2.0 10.0 0.00 0.00 0.00 14 1006.0
20260510164528 87 25 2.0 11.0 0.00 0.00 0.00 14 1006.0
20260510163025 85 5 2.0 12.0 0.00 0.00 0.00 14 1005.7
20260510161518 85 25 1.0 13.0 0.00 0.00 0.00 15 1005.8
20260510160015 84 21 0.0 10.0 0.00 0.00 0.00 15 1005.8
20260510154511 83 14 2.0 12.0 0.00 0.00 0.00 15 1005.8
20260510153007 83 325 2.0 12.0 0.00 0.00 0.00 15 1005.6
20260510151501 82 5 2.0 8.0 0.00 0.00 0.00 15 1005.5
20260510150124 81 288 2.0 11.0 0.00 0.00 0.00 15 1005.4
20260510144553 81 257 1.0 9.0 0.00 0.00 0.00 15 1005.4
20260510143048 80 166 0.0 2.0 0.00 0.00 0.00 17 1005.4
20260510141544 79 166 0.0 1.0 0.00 0.00 0.00 18 1005.3
20260510140039 77 194 0.0 0.0 0.00 0.00 0.00 18 1004.8
20260510134536 75 194 0.0 1.0 0.00 0.00 0.00 19 1004.5
20260510133030 72 194 0.0 0.0 0.00 0.00 0.00 20 1004.2
20260510131527 70 194 0.0 0.0 0.00 0.00 0.00 21 1004.0
20260510130025 70 194 0.0 0.0 0.00 0.00 0.00 21 1003.9
20260510124528 68 217 0.0 0.0 0.00 0.00 0.00 21 1003.7
20260510123019 67 217 0.0 0.0 0.00 0.00 0.00 20 1003.5
20260510121515 67 217 0.0 0.0 0.00 0.00 0.00 20 1003.4
20260510120021 67 213 0.0 0.0 0.00 0.00 0.00 20 1003.0
20260510114516 68 213 0.0 0.0 0.00 0.00 0.00 20 1002.7
20260510113008 68 213 0.0 1.0 0.00 0.00 0.00 19 1002.6
20260510111507 70 215 0.0 3.0 0.00 0.00 0.00 19 1002.4
20260510110005 69 213 0.0 0.0 0.00 0.00 0.00 21 1002.2
20260510104503 69 213 0.0 1.0 0.00 0.00 0.00 21 1002.1
20260510103001 69 213 0.0 0.0 0.00 0.00 0.00 20 1002.0
20260510101600 70 213 0.0 0.0 0.00 0.00 0.00 19 1002.0
20260510100057 70 213 0.0 0.0 0.00 0.00 0.00 19 1002.0
20260510094610 70 213 0.0 0.0 0.00 0.00 0.00 19 1001.9
20260510093111 70 213 0.0 0.0 0.00 0.00 0.00 19 1001.7
20260510091554 71 213 0.0 0.0 0.00 0.00 0.00 18 1001.6
20260510090054 71 213 0.0 0.0 0.00 0.00 0.00 18 1001.7
20260510084551 71 213 0.0 0.0 0.00 0.00 0.00 19 1001.8
20260510083100 72 213 0.0 1.0 0.00 0.00 0.00 18 1001.5
20260510081544 74 213 0.0 2.0 0.00 0.00 0.00 17 1001.7
20260510080045 75 213 0.0 0.0 0.00 0.00 0.00 15 1001.7
20260510074547 77 213 0.0 0.0 0.00 0.00 0.00 14 1001.8
20260510073051 78 213 0.0 1.0 0.00 0.00 0.00 13 1001.8
20260510071540 77 213 0.0 2.0 0.00 0.00 0.00 14 1001.9
20260510070039 75 213 0.0 0.0 0.00 0.00 0.00 15 1001.9
20260510064537 75 213 0.0 0.0 0.00 0.00 0.00 15 1001.9
20260510063034 75 213 0.0 0.0 0.00 0.00 0.00 15 1001.9
20260510061534 76 213 0.0 0.0 0.00 0.00 0.00 15 1001.9
20260510060039 76 213 0.0 0.0 0.00 0.00 0.00 15 1001.9
20260510054536 77 213 0.0 0.0 0.00 0.00 0.00 15 1001.9
20260510053028 77 213 0.0 0.0 0.00 0.00 0.00 15 1001.9
20260510051528 77 213 0.0 0.0 0.00 0.00 0.00 15 1001.9
20260510050027 78 213 0.0 0.0 0.00 0.00 0.00 14 1001.8
20260510044527 79 213 0.0 0.0 0.00 0.00 0.00 14 1001.8
20260510043028 81 213 0.0 0.0 0.00 0.00 0.00 13 1001.8
20260510041525 82 213 0.0 1.0 0.00 0.00 0.00 12 1001.7
20260510040026 83 213 0.0 0.0 0.00 0.00 0.00 12 1001.6
20260510034525 83 213 0.0 2.0 0.00 0.00 0.00 12 1001.6
20260510033024 83 213 0.0 3.0 0.00 0.00 0.00 12 1001.4
20260510031524 84 213 0.0 3.0 0.00 0.00 0.00 12 1001.3
20260510030024 84 213 0.0 0.0 0.00 0.00 0.00 12 1001.1
20260510024523 85 213 0.0 0.0 0.00 0.00 0.00 11 1000.8
20260510023023 86 213 0.0 0.0 0.00 0.00 0.00 11 1000.6
20260510021526 87 213 0.0 2.0 0.00 0.00 0.00 11 1000.3
20260510020022 88 213 0.0 2.0 0.00 0.00 0.00 10 1000.2
20260510014524 89 236 0.0 4.0 0.00 0.00 0.00 9 1000.1
20260510013021 89 234 0.0 3.0 0.00 0.00 0.00 9 1000.0
20260510011520 90 234 0.0 3.0 0.00 0.00 0.00 8 1000.0
20260510010019 90 234 0.0 4.0 0.00 0.00 0.00 9 1000.0
20260510004519 91 232 0.0 5.0 0.00 0.00 0.00 8 1000.0
20260510003033 92 231 2.0 5.0 0.00 0.00 0.00 8 1000.1
20260510001522 92 230 3.0 8.0 0.00 0.00 0.00 8 1000.1
20260510000015 93 236 1.0 7.0 0.00 0.00 0.00 7 1000.2
20260509234524 94 236 1.0 5.0 0.00 0.00 0.00 7 1000.4
20260509233012 92 229 3.0 8.0 0.00 0.00 0.00 8 1000.4
20260509231514 93 215 3.0 7.0 0.00 0.00 0.00 8 1000.4
20260509230010 92 211 1.0 8.0 0.00 0.00 0.00 8 1000.5
20260509224508 94 233 3.0 9.0 0.00 0.00 0.00 9 1000.8
20260509223007 92 219 2.0 10.0 0.00 0.00 0.00 9 1000.8
20260509221505 92 219 2.0 7.0 0.00 0.00 0.00 9 1001.2
20260509220006 91 222 0.0 6.0 0.00 0.00 0.00 9 1001.3
20260509214501 92 226 4.0 8.0 0.00 0.00 0.00 10 1001.5
20260509213134 92 233 2.0 9.0 0.00 0.00 0.00 10 1001.7
20260509211556 92 218 5.0 9.0 0.00 0.00 0.00 9 1002.1
20260509210105 91 232 0.0 8.0 0.00 0.00 0.00 9 1002.3
20260509204552 92 233 3.0 8.0 0.00 0.00 0.00 8 1002.8